User: anonymous   Login
Location: Morehead State University
(38.1872°N, 83.4339°W)
Time: 03:46:04
(UTC-04:00)
Language:

Okean 2 - Orbit

View from above orbital plane
View from above orbital plane
View from above satellite
View from above satellite

Ground track
Ground track

The orbit data is extracted from the following two-line orbital elements,

1 20510U 90018A   14297.09935042  .00004433  00000-0  38817-3 0  8679
2 20510 082.5197 018.9182 0013124 011.7100 062.2451 14.96430782336659
Epoch (UTC): 24 October 2014 02:23:03
Eccentricity: 0.0013124
inclination: 82.5197°
perigee height: 569 km
apogee height: 587 km
right ascension of ascending node: 18.9182°
argument of perigee: 11.7100°
revolutions per day: 14.96430782
mean anomaly at epoch: 62.2451°
orbit number at epoch: 33665

The dashed part of the orbit path shows where the satellite is in the earth's shadow,  

DLR